{"data":{"norad_id":63646,"intl_designator":"2025-083N","name":"STARLINK-33661","alt_names":[],"object_type":"PAYLOAD","status":"ACTIVE","operator":null,"country":"US","launch_date":"2025-04-25","launch_site_code":"AFETR","launch_vehicle":null,"mission":null,"orbit_class":"UNKNOWN","rcs_meters":null,"size_class":null,"mass_kg":null,"dimensions":null,"purposes":["comms"],"wikipedia_slug":null,"has_3d_model":false,"image_url":null,"decayed_at":null,"tle_current":{"epoch":"2026-09-20T16:59:26.156832Z","epoch_age_seconds":134526,"freshness":"FRESH","line1":"1 63646U 25083N   26263.70794163  .00012348  00000+0  45740-3 0  9999","line2":"2 63646  43.0008 343.7339 0001315 267.6013  92.4688 15.27587037 79928","mean_motion":15.27587037,"eccentricity":0.0001315,"inclination_deg":43.0008,"raan_deg":343.7339,"arg_perigee_deg":267.6013,"mean_anomaly_deg":92.4688,"bstar":0.0004574,"rev_number":7992,"period_min":94.266314463364,"perigee_km":482.12578161023,"apogee_km":483.93026801176,"semimajor_km":6861.165024811,"source":"CELESTRAK","updated_at":"2026-09-21T09:00:35.053061Z"}}}